Regional Weather Roundup
Issued by NWS

Home | Current Version | Previous Version | Graphics & Text | Print | Product List | Glossary On
Versions: 1 2 3 4 5 6 7 8 9 10 11 12 13 14 15 16 17 18 19 20 21 22 23 24 25 26 27 28 29 30 31 32 33 34 35 36 37 38 39 40 41 42 43 44 45 46 47 48 49 50
000
ASUS43 KLOT 011721
RWRIL

ILLINOIS REGIONAL WEATHER ROUNDUP
NATIONAL WEATHER SERVICE CHICAGO/ROMEOVILLE IL
1200 PM CDT WED JUL 01 2015

NOTE: "FAIR" INDICATES FEW OR NO CLOUDS BELOW 12,000 FEET WITH NO
SIGNIFICANT WEATHER AND/OR OBSTRUCTIONS TO VISIBILITY.

* THESE STATIONS ARE NOT UNDER NWS QUALITY CONTROL. THEY ALSO MAY NOT
  REPORT WEATHER SUCH AS PRECIPITATION OR FOG.

ILZ001-002-007-009-015-016-024-011800-
NORTHWEST ILLINOIS

CITY           SKY/WX    TMP DP  RH WIND       PRES   REMARKS
MOLINE         CLOUDY    68  60  75 E10       29.95F
STERLING*      PTSUNNY   70  61  73 E7        29.96F
SAVANNA*       PTSUNNY   69  58  67 E5        29.96F
$$

ILZ003-004-008-010-011-017-018-011800-
NORTH CENTRAL ILLINOIS

CITY           SKY/WX    TMP DP  RH WIND       PRES   REMARKS
ROCKFORD       CLOUDY    68  56  65 VRB7      29.99S
FREEPORT*      CLOUDY    65  57  74 NE5       29.99F
ROCHELLE*      CLOUDY    66  58  75 N6        29.98S
DE KALB*       CLOUDY    65  57  75 N9        29.99S
PERU*          CLOUDY    69  59  72 E6        29.97F
$$

ILZ005-006-012>014-019>023-011800-
NORTHEAST ILLINOIS

CITY           SKY/WX    TMP DP  RH WIND       PRES   REMARKS
CHICAGO-OHARE  PTSUNNY   68  55  63 N8        29.97S
CHICAGO-MIDWAY PTSUNNY   67  54  63 NE8       29.97S
AURORA         CLOUDY    68  56  65 VRB7      29.98R
LANSING*       MOSUNNY   65  53  64 E7        29.98S
JOLIET*        CLOUDY    69  59  69 N3        29.97S
WAUKEGAN       SUNNY     59  50  72 NE9       29.98S
DUPAGE AIRPORT PTSUNNY   69  57  65 N5        29.97S
KANKAKEE*      CLOUDY    68  59  73 E5        29.97S
WHEELING       PTSUNNY   67  55  65 N10G17    29.98F
MORRIS*        CLOUDY    68  58  68 E6        29.95F
ROMEOVILLE*    PTSUNNY   69  56  63 SE3       29.97F
NORTHERLY ISL    N/A     60  53  77 NE8         N/A
$$

LMZ740>746-011800-
SOUTHERN LAKE MICHIGAN

STATION/POSITION SKY/WX   TEMP    WIND        PRES    VSBY  WAVE
                          AIR SEA DIR/SP/G                  HT/PER
                          (F)     (DEG/KT/KT) (MB)    (MI)  (FT/S)
HARRISON CRIB              56      50/  8/ 10   N/A
BURNHAM HARBOR             60      40/  8/  9   N/A
CALUMET HARBOR             58      20/  9/ 11   N/A
BURNS HARBOR               58      20/  9/ 10 1015.9S
MICHIGAN CITY              57     350/ 11/ 14   N/A
MICHIGAN CITY 6N           58 65   20/ 10/ 14   N/A           3/ 5
ST. JOSEPH                 58 63                N/A           3/ 5
$$

ILZ025>027-034>036-040-047-049-050-058-095>099-011800-
WEST-CENTRAL ILLINOIS

CITY           SKY/WX    TMP DP  RH WIND       PRES   REMARKS
QUINCY         PTSUNNY   80  67  64 CALM      29.91S HX  82
GALESBURG*     MOSUNNY   72  64  78 N9        29.94S
MACOMB*        PTSUNNY   76  70  81 NE5       29.94S
JACKSONVILLE*  PTSUNNY   81  69  67 W5        29.90F HX  84
PITTSFIELD*    MOSUNNY   80  68  67 W5        29.92S HX  82
$$

ILZ028>032-037-038-041>044-048-051>054-059>061-011800-
CENTRAL ILLINOIS

CITY           SKY/WX    TMP DP  RH WIND       PRES   REMARKS
PONTIAC        PTSUNNY   71  63  77 NE6       29.97S
BLOOMINGTON    MOSUNNY   72  65  78 E8        29.96S
DECATUR        PTSUNNY   75  68  78 CALM      29.93S HAZE
PEORIA         PTSUNNY   74  64  71 VRB6      29.94S
LACON*         SUNNY     69  60  73 E5        29.95S
LINCOLN*       PTSUNNY   76  69  78 N3        29.92F
SPRINGFIELD    MOSUNNY   81  69  67 NW3       29.91F HX  84
TAYLORVILLE    MOSUNNY   77  66  69 W3        29.92S
$$

ILZ033-039-045-046-055>057-062-063-011800-
EAST-CENTRAL ILLINOIS

CITY           SKY/WX    TMP DP  RH WIND       PRES   REMARKS
CHAMPAIGN      CLOUDY    70  64  81 E3        29.94S
DANVILLE*      CLOUDY    69  63  80 CALM      29.93S
RANTOUL*       PTSUNNY   71  64  77 E6        29.95S
MATTOON        PTSUNNY   75  69  81 VRB6      29.92F
PARIS*         CLOUDY    73  67  81 SE5       29.94F
$$

ILZ079-100>102-011800-
SOUTHWEST ILLINOIS

CITY           SKY/WX    TMP DP  RH WIND       PRES   REMARKS
ALTON          CLOUDY    77  75  94 SW9       29.93F
BELLEVILLE     CLOUDY    78  71  80 VRB5      29.92F
CAHOKIA*       CLOUDY    79  68  69 VRB6      29.92F HX  81
SPARTA*        CLOUDY    75  67  77 SW9       29.95F
$$

ILZ064>066-069>071-074>076-080>082-084>086-088>090-092>094-011800-
SOUTH-CENTRAL ILLINOIS

CITY           SKY/WX    TMP DP  RH WIND       PRES   REMARKS
CARBONDALE     CLOUDY    74  69  85 W9        29.97S
CAIRO*         RAIN      72  68  88 W10       30.00R
EFFINGHAM*     PTSUNNY   79  64  58 SW6       29.94F HX  81
MARION         CLOUDY    75  70  83 SW9       29.98S
MT. VERNON     CLOUDY    75  66  73 W10       29.95F
CENTRALIA*     CLOUDY    74  68  79 W8        29.95S
SALEM*         CLOUDY    79  69  71 SW8       29.94F HX  81
METROPOLIS*    CLOUDY    75  72  91 W5        30.00S
$$

ILZ067-068-072-073-078-083-087-091-011800-
SOUTHEAST ILLINOIS

CITY           SKY/WX    TMP DP  RH WIND       PRES   REMARKS
LAWRENCEVILLE  CLOUDY    75  70  84 SW10      29.94S
FLORA*         CLOUDY    74  70  86 SW8       29.94S
FAIRFIELD*     CLOUDY    74  72  91 SW5       29.94F
HARRISBURG*    CLOUDY    74  70  86 SW8G16    29.98F
ROBINSON*      PTSUNNY   77  69  76 SW3       29.94S
CARMI*         HVY RAIN  71  64  77 W6        29.96S
$$

ABBREVIATIONS USED IN REMARKS
   TC - TEMPERATURE IN CELSIUS
  WCI - WIND CHILL INDEX
   HX - HEAT INDEX
  VSB - VISIBILITY
$$



USA.gov is the U.S. government's official web portal to all federal, state and local government web resources and services.